Zurück zum Katalog

STARLINK-32829

AktivKommunikationVLEO
NORAD 63049·PAYLOAD·🇺🇸 United States

Gestartet Feb 18, 2025 von Cape Canaveral Space Force Station

Loading…

Nächste Überflüge (nächste 24 Stunden)

TLE

AktuellSource: CelesTrak SupGP

Epoche: Sep 14, 2026, 20:38 UTC

1 63049C 25034W   26257.86020833 -.00049547  00000+0 -14641-2 0  2573
2 63049  53.1576 108.4012 0001255  83.2480 278.5462 15.34411339    14

Verfolge STARLINK-32829 in Echtzeit mit AllMySat

Download on the App Store